owner,sensor,date,latitude,longitude,vertical_datum,sea_water_temperature,qcFlag 
CenGOOS,ioos:station:wmo:42067:1,2015-07-01T02:40Z,30.0430,-88.6490,-1.4,29.0,2 
CenGOOS,ioos:station:wmo:42067:1,2015-07-01T05:40Z,30.0430,-88.6490,-1.4,28.9,2 
CenGOOS,ioos:station:wmo:42067:1,2015-07-01T08:40Z,30.0430,-88.6490,-1.4,28.7,2 
CenGOOS,ioos:station:wmo:42067:1,2015-07-01T14:40Z,30.0430,-88.6490,-1.4,28.3,2 
CenGOOS,ioos:station:wmo:42067:1,2015-07-01T20:40Z,30.0430,-88.6490,-1.4,29.4,2 
CenGOOS,ioos:station:wmo:42067:1,2015-07-02T02:40Z,30.0430,-88.6490,-1.4,29.1,2 
CenGOOS,ioos:station:wmo:42067:1,2015-07-02T05:40Z,30.0430,-88.6490,-1.4,28.5,2 
CenGOOS,ioos:station:wmo:42067:1,2015-07-02T11:40Z,30.0430,-88.6490,-1.4,28.3,2 
CenGOOS,ioos:station:wmo:42067:1,2015-07-02T14:40Z,30.0430,-88.6490,-1.4,28.4,2 
CenGOOS,ioos:station:wmo:42067:1,2015-07-02T17:40Z,30.0430,-88.6490,-1.4,28.7,2 
CenGOOS,ioos:station:wmo:42067:1,2015-07-02T20:40Z,30.0430,-88.6490,-1.4,28.9,2 
CenGOOS,ioos:station:wmo:42067:1,2015-07-03T11:40Z,30.0430,-88.6490,-1.4,28.0,2 
CenGOOS,ioos:station:wmo:42067:1,2015-07-03T17:40Z,30.0430,-88.6490,-1.4,29.5,2 
CenGOOS,ioos:station:wmo:42067:1,2015-07-03T20:40Z,30.0430,-88.6490,-1.4,30.4,2 
CenGOOS,ioos:station:wmo:42067:1,2015-07-03T23:40Z,30.0430,-88.6490,-1.4,29.9,2 
CenGOOS,ioos:station:wmo:42067:1,2015-07-04T02:40Z,30.0430,-88.6490,-1.4,29.0,2 
CenGOOS,ioos:station:wmo:42067:1,2015-07-04T05:40Z,30.0430,-88.6490,-1.4,28.6,2 
CenGOOS,ioos:station:wmo:42067:1,2015-07-04T08:40Z,30.0430,-88.6490,-1.4,28.6,2 
CenGOOS,ioos:station:wmo:42067:1,2015-07-04T11:40Z,30.0430,-88.6490,-1.4,28.4,2 
CenGOOS,ioos:station:wmo:42067:1,2015-07-04T14:40Z,30.0430,-88.6490,-1.4,28.6,2 
CenGOOS,ioos:station:wmo:42067:1,2015-07-04T17:40Z,30.0430,-88.6490,-1.4,29.3,2 
CenGOOS,ioos:station:wmo:42067:1,2015-07-04T20:40Z,30.0430,-88.6490,-1.4,29.6,2 
CenGOOS,ioos:station:wmo:42067:1,2015-07-04T23:40Z,30.0430,-88.6490,-1.4,29.5,2 
CenGOOS,ioos:station:wmo:42067:1,2015-07-05T02:40Z,30.0430,-88.6490,-1.4,29.2,2 
CenGOOS,ioos:station:wmo:42067:1,2015-07-05T05:40Z,30.0430,-88.6490,-1.4,28.9,2 
CenGOOS,ioos:station:wmo:42067:1,2015-07-05T08:40Z,30.0430,-88.6490,-1.4,28.8,2 
CenGOOS,ioos:station:wmo:42067:1,2015-07-05T11:40Z,30.0430,-88.6490,-1.4,28.8,2 
CenGOOS,ioos:station:wmo:42067:1,2015-07-05T17:40Z,30.0430,-88.6490,-1.4,29.1,2 
CenGOOS,ioos:station:wmo:42067:1,2015-07-05T20:40Z,30.0430,-88.6490,-1.4,28.7,2 
CenGOOS,ioos:station:wmo:42067:1,2015-07-05T23:40Z,30.0430,-88.6490,-1.4,28.4,2 
CenGOOS,ioos:station:wmo:42067:1,2015-07-06T02:40Z,30.0430,-88.6490,-1.4,28.4,2 
CenGOOS,ioos:station:wmo:42067:1,2015-07-06T05:40Z,30.0430,-88.6490,-1.4,28.0,2 
CenGOOS,ioos:station:wmo:42067:1,2015-07-06T08:40Z,30.0430,-88.6490,-1.4,27.9,2 
CenGOOS,ioos:station:wmo:42067:1,2015-07-06T11:40Z,30.0430,-88.6490,-1.4,27.8,2 
CenGOOS,ioos:station:wmo:42067:1,2015-07-06T14:40Z,30.0430,-88.6490,-1.4,27.9,2 
CenGOOS,ioos:station:wmo:42067:1,2015-07-06T17:40Z,30.0430,-88.6490,-1.4,28.5,2 
CenGOOS,ioos:station:wmo:42067:1,2015-07-06T20:40Z,30.0430,-88.6490,-1.4,29.1,2 
CenGOOS,ioos:station:wmo:42067:1,2015-07-07T02:40Z,30.0430,-88.6490,-1.4,28.8,2 
CenGOOS,ioos:station:wmo:42067:1,2015-07-07T05:40Z,30.0430,-88.6490,-1.4,28.6,2 
CenGOOS,ioos:station:wmo:42067:1,2015-07-07T14:40Z,30.0430,-88.6490,-1.4,28.4,2 
CenGOOS,ioos:station:wmo:42067:1,2015-07-07T17:40Z,30.0430,-88.6490,-1.4,29.2,2 
CenGOOS,ioos:station:wmo:42067:1,2015-07-07T20:40Z,30.0430,-88.6490,-1.4,29.8,2 
CenGOOS,ioos:station:wmo:42067:1,2015-07-07T23:40Z,30.0430,-88.6490,-1.4,29.6,2 
CenGOOS,ioos:station:wmo:42067:1,2015-07-08T02:40Z,30.0430,-88.6490,-1.4,29.6,2 
CenGOOS,ioos:station:wmo:42067:1,2015-07-08T05:40Z,30.0430,-88.6490,-1.4,29.1,2 
CenGOOS,ioos:station:wmo:42067:1,2015-07-08T08:40Z,30.0430,-88.6490,-1.4,28.8,2 
CenGOOS,ioos:station:wmo:42067:1,2015-07-08T11:40Z,30.0430,-88.6490,-1.4,28.7,2 
CenGOOS,ioos:station:wmo:42067:1,2015-07-08T14:40Z,30.0430,-88.6490,-1.4,28.8,2 
CenGOOS,ioos:station:wmo:42067:1,2015-07-08T17:40Z,30.0430,-88.6490,-1.4,29.4,2 
CenGOOS,ioos:station:wmo:42067:1,2015-07-13T23:40Z,30.0430,-88.6490,-1.4,31.3,2 
CenGOOS,ioos:station:wmo:42067:1,2015-07-14T02:40Z,30.0430,-88.6490,-1.4,30.9,2 
CenGOOS,ioos:station:wmo:42067:1,2015-07-14T05:40Z,30.0430,-88.6490,-1.4,30.7,2 
CenGOOS,ioos:station:wmo:42067:1,2015-07-14T08:40Z,30.0430,-88.6490,-1.4,30.6,2 
CenGOOS,ioos:station:wmo:42067:1,2015-07-14T11:40Z,30.0430,-88.6490,-1.4,30.6,2 
CenGOOS,ioos:station:wmo:42067:1,2015-07-14T17:40Z,30.0430,-88.6490,-1.4,30.8,2 
CenGOOS,ioos:station:wmo:42067:1,2015-07-14T20:40Z,30.0430,-88.6490,-1.4,31.1,2 
CenGOOS,ioos:station:wmo:42067:1,2015-07-14T23:40Z,30.0430,-88.6490,-1.4,31.2,2 
CenGOOS,ioos:station:wmo:42067:1,2015-07-15T02:40Z,30.0430,-88.6490,-1.4,31.0,2 
CenGOOS,ioos:station:wmo:42067:1,2015-07-15T05:40Z,30.0430,-88.6490,-1.4,30.8,2 
CenGOOS,ioos:station:wmo:42067:1,2015-07-15T08:40Z,30.0430,-88.6490,-1.4,30.5,2 
CenGOOS,ioos:station:wmo:42067:1,2015-07-15T11:40Z,30.0430,-88.6490,-1.4,30.2,2 
CenGOOS,ioos:station:wmo:42067:1,2015-07-15T14:40Z,30.0430,-88.6490,-1.4,30.1,2 
CenGOOS,ioos:station:wmo:42067:1,2015-07-15T17:40Z,30.0430,-88.6490,-1.4,30.4,2 
CenGOOS,ioos:station:wmo:42067:1,2015-07-15T20:40Z,30.0430,-88.6490,-1.4,30.8,2 
CenGOOS,ioos:station:wmo:42067:1,2015-07-15T23:40Z,30.0430,-88.6490,-1.4,30.7,2 
CenGOOS,ioos:station:wmo:42067:1,2015-07-16T05:40Z,30.0430,-88.6490,-1.4,30.6,2 
CenGOOS,ioos:station:wmo:42067:1,2015-07-16T08:40Z,30.0430,-88.6490,-1.4,30.4,2 
CenGOOS,ioos:station:wmo:42067:1,2015-07-16T11:40Z,30.0430,-88.6490,-1.4,30.1,2 
CenGOOS,ioos:station:wmo:42067:1,2015-07-16T14:40Z,30.0430,-88.6490,-1.4,30.0,2 
CenGOOS,ioos:station:wmo:42067:1,2015-07-16T17:40Z,30.0430,-88.6490,-1.4,30.4,2 
CenGOOS,ioos:station:wmo:42067:1,2015-07-16T23:40Z,30.0430,-88.6490,-1.4,30.7,2 
CenGOOS,ioos:station:wmo:42067:1,2015-07-17T02:40Z,30.0430,-88.6490,-1.4,30.6,2 
CenGOOS,ioos:station:wmo:42067:1,2015-07-17T05:40Z,30.0430,-88.6490,-1.4,30.4,2 
CenGOOS,ioos:station:wmo:42067:1,2015-07-17T08:40Z,30.0430,-88.6490,-1.4,30.1,2 
CenGOOS,ioos:station:wmo:42067:1,2015-07-17T17:40Z,30.0430,-88.6490,-1.4,30.3,2 
CenGOOS,ioos:station:wmo:42067:1,2015-07-17T20:40Z,30.0430,-88.6490,-1.4,30.7,2 
CenGOOS,ioos:station:wmo:42067:1,2015-07-18T05:40Z,30.0430,-88.6490,-1.4,30.4,2 
CenGOOS,ioos:station:wmo:42067:1,2015-07-18T08:40Z,30.0430,-88.6490,-1.4,30.3,2 
CenGOOS,ioos:station:wmo:42067:1,2015-07-18T11:40Z,30.0430,-88.6490,-1.4,30.1,2 
CenGOOS,ioos:station:wmo:42067:1,2015-07-18T14:40Z,30.0430,-88.6490,-1.4,30.1,2 
CenGOOS,ioos:station:wmo:42067:1,2015-07-18T20:40Z,30.0430,-88.6490,-1.4,31.3,2 
CenGOOS,ioos:station:wmo:42067:1,2015-07-18T23:40Z,30.0430,-88.6490,-1.4,31.5,2 
CenGOOS,ioos:station:wmo:42067:1,2015-07-19T02:40Z,30.0430,-88.6490,-1.4,31.0,2 
CenGOOS,ioos:station:wmo:42067:1,2015-07-19T05:40Z,30.0430,-88.6490,-1.4,30.9,2 
CenGOOS,ioos:station:wmo:42067:1,2015-07-19T08:40Z,30.0430,-88.6490,-1.4,30.8,2 
CenGOOS,ioos:station:wmo:42067:1,2015-07-19T11:40Z,30.0430,-88.6490,-1.4,30.8,2 
CenGOOS,ioos:station:wmo:42067:1,2015-07-19T14:40Z,30.0430,-88.6490,-1.4,30.8,2 
CenGOOS,ioos:station:wmo:42067:1,2015-07-19T20:40Z,30.0430,-88.6490,-1.4,32.0,2 
CenGOOS,ioos:station:wmo:42067:1,2015-07-20T02:40Z,30.0430,-88.6490,-1.4,31.2,2 
CenGOOS,ioos:station:wmo:42067:1,2015-07-20T05:40Z,30.0430,-88.6490,-1.4,30.8,2 
CenGOOS,ioos:station:wmo:42067:1,2015-07-20T08:40Z,30.0430,-88.6490,-1.4,30.7,2 
CenGOOS,ioos:station:wmo:42067:1,2015-07-20T11:40Z,30.0430,-88.6490,-1.4,30.8,2 
CenGOOS,ioos:station:wmo:42067:1,2015-07-20T14:40Z,30.0430,-88.6490,-1.4,31.0,2 
CenGOOS,ioos:station:wmo:42067:1,2015-07-20T17:40Z,30.0430,-88.6490,-1.4,31.1,2 
CenGOOS,ioos:station:wmo:42067:1,2015-07-20T20:40Z,30.0430,-88.6490,-1.4,31.3,2 
CenGOOS,ioos:station:wmo:42067:1,2015-07-20T23:40Z,30.0430,-88.6490,-1.4,31.1,2 
CenGOOS,ioos:station:wmo:42067:1,2015-07-21T02:40Z,30.0430,-88.6490,-1.4,30.9,2 
CenGOOS,ioos:station:wmo:42067:1,2015-07-21T05:40Z,30.0430,-88.6490,-1.4,30.9,2 
CenGOOS,ioos:station:wmo:42067:1,2015-07-21T08:40Z,30.0430,-88.6490,-1.4,30.7,2 
CenGOOS,ioos:station:wmo:42067:1,2015-07-21T14:40Z,30.0430,-88.6490,-1.4,30.7,2 
CenGOOS,ioos:station:wmo:42067:1,2015-07-21T17:40Z,30.0430,-88.6490,-1.4,31.2,2 
CenGOOS,ioos:station:wmo:42067:1,2015-07-21T20:40Z,30.0430,-88.6490,-1.4,31.8,2 
CenGOOS,ioos:station:wmo:42067:1,2015-07-21T23:40Z,30.0430,-88.6490,-1.4,31.5,2 
CenGOOS,ioos:station:wmo:42067:1,2015-07-22T02:40Z,30.0430,-88.6490,-1.4,31.5,2 
CenGOOS,ioos:station:wmo:42067:1,2015-07-22T05:40Z,30.0430,-88.6490,-1.4,31.2,2 
CenGOOS,ioos:station:wmo:42067:1,2015-07-22T08:40Z,30.0430,-88.6490,-1.4,30.9,2 
CenGOOS,ioos:station:wmo:42067:1,2015-07-22T11:40Z,30.0430,-88.6490,-1.4,30.8,2 
CenGOOS,ioos:station:wmo:42067:1,2015-07-22T20:40Z,30.0430,-88.6490,-1.4,31.8,2 
CenGOOS,ioos:station:wmo:42067:1,2015-07-22T23:40Z,30.0430,-88.6490,-1.4,31.7,2 
CenGOOS,ioos:station:wmo:42067:1,2015-07-23T02:40Z,30.0430,-88.6490,-1.4,31.5,2 
CenGOOS,ioos:station:wmo:42067:1,2015-07-23T05:40Z,30.0430,-88.6490,-1.4,31.2,2 
CenGOOS,ioos:station:wmo:42067:1,2015-07-23T08:40Z,30.0430,-88.6490,-1.4,30.7,2 
CenGOOS,ioos:station:wmo:42067:1,2015-07-23T11:40Z,30.0430,-88.6490,-1.4,30.5,2 
CenGOOS,ioos:station:wmo:42067:1,2015-07-23T14:40Z,30.0430,-88.6490,-1.4,30.3,2 
CenGOOS,ioos:station:wmo:42067:1,2015-07-23T17:40Z,30.0430,-88.6490,-1.4,30.5,2 
CenGOOS,ioos:station:wmo:42067:1,2015-07-24T02:40Z,30.0430,-88.6490,-1.4,31.1,2 
CenGOOS,ioos:station:wmo:42067:1,2015-07-24T05:40Z,30.0430,-88.6490,-1.4,30.9,2 
CenGOOS,ioos:station:wmo:42067:1,2015-07-24T08:40Z,30.0430,-88.6490,-1.4,30.3,2 
CenGOOS,ioos:station:wmo:42067:1,2015-07-24T11:40Z,30.0430,-88.6490,-1.4,30.0,2 
CenGOOS,ioos:station:wmo:42067:1,2015-07-24T14:40Z,30.0430,-88.6490,-1.4,30.1,2 
CenGOOS,ioos:station:wmo:42067:1,2015-07-24T17:40Z,30.0430,-88.6490,-1.4,30.3,2 
CenGOOS,ioos:station:wmo:42067:1,2015-07-24T20:40Z,30.0430,-88.6490,-1.4,30.6,2 
CenGOOS,ioos:station:wmo:42067:1,2015-07-25T02:40Z,30.0430,-88.6490,-1.4,30.5,2 
CenGOOS,ioos:station:wmo:42067:1,2015-07-25T05:40Z,30.0430,-88.6490,-1.4,30.4,2 
CenGOOS,ioos:station:wmo:42067:1,2015-07-25T11:40Z,30.0430,-88.6490,-1.4,30.3,2 
CenGOOS,ioos:station:wmo:42067:1,2015-07-25T14:40Z,30.0430,-88.6490,-1.4,30.3,2 
CenGOOS,ioos:station:wmo:42067:1,2015-07-25T17:40Z,30.0430,-88.6490,-1.4,30.1,2 
CenGOOS,ioos:station:wmo:42067:1,2015-07-25T20:40Z,30.0430,-88.6490,-1.4,30.2,2 
CenGOOS,ioos:station:wmo:42067:1,2015-07-25T23:40Z,30.0430,-88.6490,-1.4,29.8,2 
CenGOOS,ioos:station:wmo:42067:1,2015-07-26T02:40Z,30.0430,-88.6490,-1.4,30.0,2 
CenGOOS,ioos:station:wmo:42067:1,2015-07-26T05:40Z,30.0430,-88.6490,-1.4,30.2,2 
CenGOOS,ioos:station:wmo:42067:1,2015-07-26T08:40Z,30.0430,-88.6490,-1.4,30.1,2 
CenGOOS,ioos:station:wmo:42067:1,2015-07-26T14:40Z,30.0430,-88.6490,-1.4,30.0,2 
CenGOOS,ioos:station:wmo:42067:1,2015-07-26T17:40Z,30.0430,-88.6490,-1.4,30.5,2 
CenGOOS,ioos:station:wmo:42067:1,2015-07-26T20:40Z,30.0430,-88.6490,-1.4,30.8,2 
CenGOOS,ioos:station:wmo:42067:1,2015-07-26T23:40Z,30.0430,-88.6490,-1.4,30.7,2 
CenGOOS,ioos:station:wmo:42067:1,2015-07-27T02:40Z,30.0430,-88.6490,-1.4,30.5,2 
CenGOOS,ioos:station:wmo:42067:1,2015-07-27T11:40Z,30.0430,-88.6490,-1.4,30.1,2 
CenGOOS,ioos:station:wmo:42067:1,2015-07-27T14:40Z,30.0430,-88.6490,-1.4,30.1,2 
CenGOOS,ioos:station:wmo:42067:1,2015-07-28T14:40Z,30.0430,-88.6490,-1.4,30.7,2 
CenGOOS,ioos:station:wmo:42067:1,2015-07-29T02:40Z,30.0430,-88.6490,-1.4,31.1,2 
CenGOOS,ioos:station:wmo:42067:1,2015-07-29T08:40Z,30.0430,-88.6490,-1.4,30.9,2 
CenGOOS,ioos:station:wmo:42067:1,2015-07-29T11:40Z,30.0430,-88.6490,-1.4,30.7,2 
CenGOOS,ioos:station:wmo:42067:1,2015-07-29T14:40Z,30.0430,-88.6490,-1.4,30.3,2 
CenGOOS,ioos:station:wmo:42067:1,2015-07-29T17:40Z,30.0430,-88.6490,-1.4,30.8,2 
CenGOOS,ioos:station:wmo:42067:1,2015-07-29T23:40Z,30.0430,-88.6490,-1.4,31.3,2 
CenGOOS,ioos:station:wmo:42067:1,2015-07-30T02:40Z,30.0430,-88.6490,-1.4,31.2,2 
CenGOOS,ioos:station:wmo:42067:1,2015-07-30T05:40Z,30.0430,-88.6490,-1.4,30.9,2 
CenGOOS,ioos:station:wmo:42067:1,2015-07-30T08:40Z,30.0430,-88.6490,-1.4,30.6,2 
CenGOOS,ioos:station:wmo:42067:1,2015-07-30T11:40Z,30.0430,-88.6490,-1.4,30.6,2 
CenGOOS,ioos:station:wmo:42067:1,2015-07-30T14:40Z,30.0430,-88.6490,-1.4,30.7,2 
CenGOOS,ioos:station:wmo:42067:1,2015-07-30T20:40Z,30.0430,-88.6490,-1.4,31.5,2 
CenGOOS,ioos:station:wmo:42067:1,2015-07-31T02:40Z,30.0430,-88.6490,-1.4,30.8,2 
CenGOOS,ioos:station:wmo:42067:1,2015-07-31T05:40Z,30.0430,-88.6490,-1.4,30.7,2 
CenGOOS,ioos:station:wmo:42067:1,2015-07-31T14:40Z,30.0430,-88.6490,-1.4,30.5,2 
CenGOOS,ioos:station:wmo:42067:1,2015-07-31T17:40Z,30.0430,-88.6490,-1.4,30.6,2 
CenGOOS,ioos:station:wmo:42067:1,2015-07-31T23:40Z,30.0430,-88.6490,-1.4,31.5,2 
 
DISCLAIMER: The Gulf of Mexico Coastal and Ocean Observing (GCOOS) Data Portal aggregates data from the regional data providers for the convenience of all data users. Data published on this website should not be used for navigation or certain other uses as we cannot guarantee data accuracy or availability. The data and delivery services are provided 'as is' without warranty of any kind. Data Source: Gulf of Mexico Coastal Ocean Observing System Data Portal (http://data.gcoos.org/) 
